Time,TemperatureF,DewpointF,PressureIn,WindDirection,WindDirectionDegrees,WindSpeedMPH,WindSpeedGustMPH,Humidity,HourlyPrecipIn,Conditions,Clouds,dailyrainin,SolarRadiationWatts/m^2,SoftwareType,DateUTC
2013-01-07 00:00:00,40.4,31.8,30.33,East,85,0.0,0.0,71,0.00,,,0.00,0.00,VWS V14.00,2013-01-07 06:00:00,
2013-01-07 00:05:00,40.0,31.7,30.33,East,85,0.0,0.0,72,0.00,,,0.00,0.00,VWS V14.00,2013-01-07 06:05:00,
2013-01-07 00:10:00,39.6,31.3,30.33,East,85,0.0,0.0,72,0.00,,,0.00,0.00,VWS V14.00,2013-01-07 06:10:00,
2013-01-07 00:15:00,39.6,31.3,30.33,East,85,0.0,0.0,72,0.00,,,0.00,0.00,VWS V14.00,2013-01-07 06:15:00,
2013-01-07 00:20:00,39.4,31.1,30.33,East,85,0.0,0.0,72,0.00,,,0.00,0.00,VWS V14.00,2013-01-07 06:20:00,
2013-01-07 00:25:00,39.0,31.1,30.33,East,85,0.0,0.0,73,0.00,,,0.00,0.00,VWS V14.00,2013-01-07 06:25:00,
2013-01-07 00:30:00,38.9,31.3,30.33,East,85,0.0,0.0,74,0.00,,,0.00,0.00,VWS V14.00,2013-01-07 06:30:00,
2013-01-07 00:35:00,38.8,31.2,30.33,East,85,0.0,0.0,74,0.00,,,0.00,0.00,VWS V14.00,2013-01-07 06:35:00,
2013-01-07 00:40:00,39.0,31.4,30.33,East,85,0.0,0.0,74,0.00,,,0.00,0.00,VWS V14.00,2013-01-07 06:40:00,
2013-01-07 00:45:00,39.2,31.0,30.33,East,85,0.0,0.0,72,0.00,,,0.00,0.00,VWS V14.00,2013-01-07 06:45:00,
2013-01-07 00:50:00,39.1,31.2,30.33,East,85,0.0,0.0,73,0.00,,,0.00,0.00,VWS V14.00,2013-01-07 06:50:00,
2013-01-07 00:55:00,38.9,31.0,30.33,East,85,0.0,0.0,73,0.00,,,0.00,0.00,VWS V14.00,2013-01-07 06:55:00,
2013-01-07 01:00:00,38.6,31.0,30.34,East,85,0.0,0.0,74,0.00,,,0.00,0.00,VWS V14.00,2013-01-07 07:00:00,
2013-01-07 01:05:00,38.2,30.7,30.34,East,85,0.0,0.0,74,0.00,,,0.00,0.00,VWS V14.00,2013-01-07 07:05:00,
2013-01-07 01:10:00,38.0,30.8,30.34,East,85,0.0,0.0,75,0.00,,,0.00,0.00,VWS V14.00,2013-01-07 07:10:00,
2013-01-07 01:15:00,38.0,30.8,30.33,East,85,0.0,0.0,75,0.00,,,0.00,0.00,VWS V14.00,2013-01-07 07:15:00,
2013-01-07 01:20:00,37.9,30.7,30.33,East,85,0.0,0.0,75,0.00,,,0.00,0.00,VWS V14.00,2013-01-07 07:20:00,
2013-01-07 01:25:00,38.0,30.8,30.33,East,85,0.0,0.0,75,0.00,,,0.00,0.00,VWS V14.00,2013-01-07 07:25:00,
2013-01-07 01:30:00,37.8,30.6,30.33,East,85,0.0,0.0,75,0.00,,,0.00,0.00,VWS V14.00,2013-01-07 07:30:00,
2013-01-07 01:35:00,37.5,30.3,30.33,East,85,0.0,0.0,75,0.00,,,0.00,0.00,VWS V14.00,2013-01-07 07:35:00,
2013-01-07 01:40:00,37.5,30.6,30.33,East,85,0.0,0.0,76,0.00,,,0.00,0.00,VWS V14.00,2013-01-07 07:40:00,
2013-01-07 01:45:00,37.6,30.7,30.32,East,85,0.0,0.0,76,0.00,,,0.00,0.00,VWS V14.00,2013-01-07 07:45:00,
2013-01-07 01:50:00,37.6,30.7,30.32,East,85,0.0,0.0,76,0.00,,,0.00,0.00,VWS V14.00,2013-01-07 07:50:00,
2013-01-07 01:55:00,37.8,30.6,30.32,East,85,0.0,0.0,75,0.00,,,0.00,0.00,VWS V14.00,2013-01-07 07:55:00,
2013-01-07 02:00:00,37.7,30.5,30.31,East,85,0.0,0.0,75,0.00,,,0.00,0.00,VWS V14.00,2013-01-07 08:00:00,
2013-01-07 02:05:00,37.6,30.7,30.31,East,85,0.0,0.0,76,0.00,,,0.00,0.00,VWS V14.00,2013-01-07 08:05:00,
2013-01-07 02:10:00,37.3,30.4,30.31,East,85,0.0,0.0,76,0.00,,,0.00,0.00,VWS V14.00,2013-01-07 08:10:00,
2013-01-07 02:15:00,37.2,30.4,30.32,East,85,0.0,0.0,76,0.00,,,0.00,0.00,VWS V14.00,2013-01-07 08:15:00,
2013-01-07 02:20:00,37.5,30.6,30.32,East,85,0.0,0.0,76,0.00,,,0.00,0.00,VWS V14.00,2013-01-07 08:20:00,
2013-01-07 02:25:00,37.5,30.6,30.32,East,85,0.0,0.0,76,0.00,,,0.00,0.00,VWS V14.00,2013-01-07 08:25:00,
2013-01-07 02:30:00,37.5,30.3,30.31,East,85,0.0,0.0,75,0.00,,,0.00,0.00,VWS V14.00,2013-01-07 08:30:00,
2013-01-07 02:35:00,37.3,30.1,30.31,East,85,0.0,0.0,75,0.00,,,0.00,0.00,VWS V14.00,2013-01-07 08:35:00,
2013-01-07 02:40:00,37.2,30.4,30.31,East,85,0.0,0.0,76,0.00,,,0.00,0.00,VWS V14.00,2013-01-07 08:40:00,
2013-01-07 02:45:00,37.0,29.8,30.32,East,85,0.0,0.0,75,0.00,,,0.00,0.00,VWS V14.00,2013-01-07 08:45:00,
2013-01-07 02:50:00,36.9,30.0,30.32,East,85,0.0,0.0,76,0.00,,,0.00,0.00,VWS V14.00,2013-01-07 08:50:00,
2013-01-07 02:55:00,37.1,30.2,30.32,East,85,0.0,0.0,76,0.00,,,0.00,0.00,VWS V14.00,2013-01-07 08:55:00,
2013-01-07 03:00:00,36.9,30.0,30.32,East,85,0.0,0.0,76,0.00,,,0.00,0.00,VWS V14.00,2013-01-07 09:00:00,
2013-01-07 03:05:00,36.7,29.9,30.32,East,85,0.0,0.0,76,0.00,,,0.00,0.00,VWS V14.00,2013-01-07 09:05:00,
2013-01-07 03:10:00,36.8,30.0,30.32,East,85,0.0,0.0,76,0.00,,,0.00,0.00,VWS V14.00,2013-01-07 09:10:00,
2013-01-07 03:15:00,36.6,29.8,30.32,East,85,0.0,0.0,76,0.00,,,0.00,0.00,VWS V14.00,2013-01-07 09:15:00,
2013-01-07 03:20:00,36.5,29.7,30.32,East,85,0.0,0.0,76,0.00,,,0.00,0.00,VWS V14.00,2013-01-07 09:20:00,
2013-01-07 03:25:00,36.3,29.8,30.32,East,85,0.0,0.0,77,0.00,,,0.00,0.00,VWS V14.00,2013-01-07 09:25:00,
2013-01-07 03:30:00,36.1,29.6,30.33,East,85,0.0,0.0,77,0.00,,,0.00,0.00,VWS V14.00,2013-01-07 09:30:00,
2013-01-07 03:35:00,35.9,29.4,30.33,East,85,0.0,0.0,77,0.00,,,0.00,0.00,VWS V14.00,2013-01-07 09:35:00,
2013-01-07 03:40:00,36.0,29.5,30.33,East,85,0.0,0.0,77,0.00,,,0.00,0.00,VWS V14.00,2013-01-07 09:40:00,
2013-01-07 03:45:00,35.9,29.4,30.33,East,85,0.0,0.0,77,0.00,,,0.00,0.00,VWS V14.00,2013-01-07 09:45:00,
2013-01-07 03:50:00,35.8,29.3,30.33,East,85,0.0,0.0,77,0.00,,,0.00,0.00,VWS V14.00,2013-01-07 09:50:00,
2013-01-07 03:55:00,35.9,29.7,30.33,East,85,0.0,0.0,78,0.00,,,0.00,0.00,VWS V14.00,2013-01-07 09:55:00,
2013-01-07 04:00:00,36.0,29.8,30.31,East,85,0.0,0.0,78,0.00,,,0.00,0.00,VWS V14.00,2013-01-07 10:00:00,
2013-01-07 04:05:00,36.4,29.9,30.31,East,85,0.0,0.0,77,0.00,,,0.00,0.00,VWS V14.00,2013-01-07 10:05:00,
2013-01-07 04:10:00,36.6,29.8,30.31,East,85,0.0,0.0,76,0.00,,,0.00,0.00,VWS V14.00,2013-01-07 10:10:00,
2013-01-07 04:15:00,37.0,30.1,30.30,East,85,0.0,0.0,76,0.00,,,0.00,0.00,VWS V14.00,2013-01-07 10:15:00,
2013-01-07 04:20:00,36.8,29.6,30.30,East,85,0.0,0.0,75,0.00,,,0.00,0.00,VWS V14.00,2013-01-07 10:20:00,
2013-01-07 04:25:00,36.4,29.6,30.30,East,85,0.0,0.0,76,0.00,,,0.00,0.00,VWS V14.00,2013-01-07 10:25:00,
2013-01-07 04:30:00,36.5,29.7,30.30,East,85,0.0,0.0,76,0.00,,,0.00,0.00,VWS V14.00,2013-01-07 10:30:00,
2013-01-07 04:35:00,36.7,29.9,30.30,East,85,0.0,0.0,76,0.00,,,0.00,0.00,VWS V14.00,2013-01-07 10:35:00,
2013-01-07 04:40:00,36.8,29.6,30.30,East,85,0.0,0.0,75,0.00,,,0.00,0.00,VWS V14.00,2013-01-07 10:40:00,
2013-01-07 04:45:00,36.5,29.7,30.30,East,85,0.0,0.0,76,0.00,,,0.00,0.00,VWS V14.00,2013-01-07 10:45:00,
2013-01-07 04:50:00,36.7,29.9,30.30,East,85,0.0,0.0,76,0.00,,,0.00,0.00,VWS V14.00,2013-01-07 10:50:00,
2013-01-07 04:55:00,36.8,29.6,30.30,East,85,0.0,0.0,75,0.00,,,0.00,0.00,VWS V14.00,2013-01-07 10:55:00,
2013-01-07 05:00:00,36.8,29.6,30.30,East,85,0.0,0.0,75,0.00,,,0.00,0.00,VWS V14.00,2013-01-07 11:00:00,
2013-01-07 05:05:00,36.8,29.6,30.30,East,85,0.0,0.0,75,0.00,,,0.00,0.00,VWS V14.00,2013-01-07 11:05:00,
2013-01-07 05:10:00,36.8,29.6,30.30,East,85,0.0,0.0,75,0.00,,,0.00,0.00,VWS V14.00,2013-01-07 11:10:00,
2013-01-07 05:15:00,36.8,30.0,30.30,East,85,0.0,0.0,76,0.00,,,0.00,0.00,VWS V14.00,2013-01-07 11:15:00,
2013-01-07 05:20:00,37.0,29.8,30.30,East,85,0.0,0.0,75,0.00,,,0.00,0.00,VWS V14.00,2013-01-07 11:20:00,
2013-01-07 05:25:00,37.0,30.1,30.30,East,85,0.0,0.0,76,0.00,,,0.00,0.00,VWS V14.00,2013-01-07 11:25:00,
2013-01-07 05:30:00,37.0,30.5,30.30,East,85,0.0,0.0,77,0.00,,,0.00,0.00,VWS V14.00,2013-01-07 11:30:00,
2013-01-07 05:35:00,37.7,30.5,30.30,East,85,0.0,0.0,75,0.00,,,0.00,0.00,VWS V14.00,2013-01-07 11:35:00,
2013-01-07 05:40:00,38.3,30.8,30.30,East,85,0.0,0.0,74,0.00,,,0.00,0.00,VWS V14.00,2013-01-07 11:40:00,
2013-01-07 05:45:00,38.4,30.5,30.30,East,85,0.0,0.0,73,0.00,,,0.00,0.00,VWS V14.00,2013-01-07 11:45:00,
2013-01-07 05:50:00,38.4,30.5,30.30,East,85,0.0,0.0,73,0.00,,,0.00,0.00,VWS V14.00,2013-01-07 11:50:00,
2013-01-07 05:55:00,38.6,30.4,30.30,East,85,0.0,0.0,72,0.00,,,0.00,0.00,VWS V14.00,2013-01-07 11:55:00,
2013-01-07 06:00:00,38.5,30.3,30.30,East,85,0.0,0.0,72,0.00,,,0.00,0.00,VWS V14.00,2013-01-07 12:00:00,
2013-01-07 06:05:00,38.4,30.2,30.30,East,85,0.0,0.0,72,0.00,,,0.00,0.00,VWS V14.00,2013-01-07 12:05:00,
2013-01-07 06:10:00,38.4,30.2,30.30,East,85,0.0,0.0,72,0.00,,,0.00,0.00,VWS V14.00,2013-01-07 12:10:00,
2013-01-07 06:15:00,38.2,30.3,30.31,East,85,0.0,0.0,73,0.00,,,0.00,0.00,VWS V14.00,2013-01-07 12:15:00,
2013-01-07 06:20:00,37.9,30.0,30.31,East,85,0.0,0.0,73,0.00,,,0.00,0.00,VWS V14.00,2013-01-07 12:20:00,
2013-01-07 06:25:00,37.6,30.1,30.31,East,85,0.0,0.0,74,0.00,,,0.00,0.00,VWS V14.00,2013-01-07 12:25:00,
2013-01-07 06:30:00,37.3,29.8,30.31,East,85,0.0,0.0,74,0.00,,,0.00,0.00,VWS V14.00,2013-01-07 12:30:00,
2013-01-07 06:35:00,36.9,29.4,30.31,East,85,0.0,0.0,74,0.00,,,0.00,0.00,VWS V14.00,2013-01-07 12:35:00,
2013-01-07 06:40:00,36.5,29.3,30.31,East,85,0.0,0.0,75,0.00,,,0.00,0.00,VWS V14.00,2013-01-07 12:40:00,
2013-01-07 06:45:00,36.0,29.5,30.31,East,85,0.0,0.0,77,0.00,,,0.00,0.00,VWS V14.00,2013-01-07 12:45:00,
2013-01-07 06:50:00,35.8,29.3,30.31,East,85,0.0,0.0,77,0.00,,,0.00,0.00,VWS V14.00,2013-01-07 12:50:00,
2013-01-07 06:55:00,35.4,29.2,30.31,East,85,0.0,0.0,78,0.00,,,0.00,0.00,VWS V14.00,2013-01-07 12:55:00,
2013-01-07 07:00:00,35.2,29.4,30.31,East,85,0.0,0.0,79,0.00,,,0.00,0.00,VWS V14.00,2013-01-07 13:00:00,
2013-01-07 07:05:00,35.4,29.5,30.31,East,85,0.0,0.0,79,0.00,,,0.00,0.00,VWS V14.00,2013-01-07 13:05:00,
2013-01-07 07:10:00,35.5,29.6,30.31,East,85,0.0,0.0,79,0.00,,,0.00,0.00,VWS V14.00,2013-01-07 13:10:00,
2013-01-07 07:15:00,35.6,29.7,30.31,East,85,0.0,0.0,79,0.00,,,0.00,0.00,VWS V14.00,2013-01-07 13:15:00,
2013-01-07 07:19:00,35.5,29.6,30.31,East,85,0.0,0.0,79,0.00,,,0.00,0.00,VWS V14.00,2013-01-07 13:19:00,
2013-01-07 07:24:00,35.3,29.5,30.31,East,85,0.0,0.0,79,0.00,,,0.00,0.00,VWS V14.00,2013-01-07 13:24:00,
2013-01-07 07:29:00,35.2,29.4,30.31,East,85,0.0,0.0,79,0.00,,,0.00,0.00,VWS V14.00,2013-01-07 13:29:00,
2013-01-07 07:34:00,35.1,29.6,30.31,East,85,0.0,0.0,80,0.00,,,0.00,5.00,VWS V14.00,2013-01-07 13:34:00,
2013-01-07 07:39:00,35.2,29.7,30.31,East,85,0.0,0.0,80,0.00,,,0.00,7.00,VWS V14.00,2013-01-07 13:39:00,
2013-01-07 07:44:00,35.4,29.9,30.31,East,85,0.0,0.0,80,0.00,,,0.00,11.00,VWS V14.00,2013-01-07 13:44:00,
2013-01-07 07:49:00,35.3,29.8,30.31,East,85,0.0,0.0,80,0.00,,,0.00,16.00,VWS V14.00,2013-01-07 13:49:00,
2013-01-07 07:54:00,35.5,30.0,30.31,East,85,0.0,0.0,80,0.00,,,0.00,25.00,VWS V14.00,2013-01-07 13:54:00,
2013-01-07 07:59:00,36.2,30.3,30.31,East,85,0.0,0.0,79,0.00,,,0.00,39.00,VWS V14.00,2013-01-07 13:59:00,
2013-01-07 08:04:00,36.9,30.4,30.31,East,85,0.0,0.0,77,0.00,,,0.00,53.00,VWS V14.00,2013-01-07 14:04:00,
2013-01-07 08:09:00,37.5,30.6,30.31,East,85,0.0,0.0,76,0.00,,,0.00,67.00,VWS V14.00,2013-01-07 14:09:00,
2013-01-07 08:14:00,38.1,31.2,30.31,East,85,0.0,0.0,76,0.00,,,0.00,77.00,VWS V14.00,2013-01-07 14:14:00,
2013-01-07 08:19:00,38.8,31.2,30.31,East,85,0.0,0.0,74,0.00,,,0.00,88.00,VWS V14.00,2013-01-07 14:19:00,
2013-01-07 08:24:00,39.2,31.3,30.31,East,85,0.0,0.0,73,0.00,,,0.00,88.00,VWS V14.00,2013-01-07 14:24:00,
2013-01-07 08:29:00,39.5,31.2,30.31,East,85,0.0,0.0,72,0.00,,,0.00,107.00,VWS V14.00,2013-01-07 14:29:00,
2013-01-07 08:34:00,39.9,31.3,30.31,East,85,0.0,0.0,71,0.00,,,0.00,134.00,VWS V14.00,2013-01-07 14:34:00,
2013-01-07 08:39:00,40.2,31.6,30.31,East,85,0.0,0.0,71,0.00,,,0.00,88.00,VWS V14.00,2013-01-07 14:39:00,
2013-01-07 08:44:00,40.5,31.9,30.31,East,85,0.0,0.0,71,0.00,,,0.00,118.00,VWS V14.00,2013-01-07 14:44:00,
2013-01-07 08:49:00,40.9,32.2,30.32,East,85,0.0,0.0,71,0.00,,,0.00,123.00,VWS V14.00,2013-01-07 14:49:00,
2013-01-07 08:54:00,41.2,32.2,30.32,East,85,0.0,0.0,70,0.00,,,0.00,174.00,VWS V14.00,2013-01-07 14:54:00,
2013-01-07 08:59:00,41.7,33.0,30.32,East,85,0.0,0.0,71,0.00,,,0.00,186.00,VWS V14.00,2013-01-07 14:59:00,
2013-01-07 09:04:00,42.0,32.9,30.32,East,85,0.0,0.0,70,0.00,,,0.00,142.00,VWS V14.00,2013-01-07 15:04:00,
2013-01-07 09:09:00,42.4,33.3,30.32,East,85,0.0,0.0,70,0.00,,,0.00,162.00,VWS V14.00,2013-01-07 15:09:00,
2013-01-07 09:14:00,42.8,33.3,30.32,East,85,0.0,0.0,69,0.00,,,0.00,144.00,VWS V14.00,2013-01-07 15:14:00,
2013-01-07 09:19:00,43.1,33.6,30.32,East,85,0.0,0.0,69,0.00,,,0.00,206.00,VWS V14.00,2013-01-07 15:19:00,
2013-01-07 09:24:00,43.4,33.9,30.32,East,85,0.0,0.0,69,0.00,,,0.00,158.00,VWS V14.00,2013-01-07 15:24:00,
2013-01-07 09:29:00,43.8,34.3,30.32,East,85,4.0,4.0,69,0.00,,,0.00,111.00,VWS V14.00,2013-01-07 15:29:00,
2013-01-07 09:34:00,44.1,35.0,30.33,East,85,4.0,5.0,70,0.00,,,0.00,118.00,VWS V14.00,2013-01-07 15:34:00,
2013-01-07 09:39:00,44.6,35.1,30.33,East,85,0.0,2.0,69,0.00,,,0.00,299.00,VWS V14.00,2013-01-07 15:39:00,
2013-01-07 09:44:00,45.3,35.4,30.33,East,85,0.0,0.0,68,0.00,,,0.00,367.00,VWS V14.00,2013-01-07 15:44:00,
2013-01-07 09:49:00,45.9,36.0,30.33,East,86,4.0,6.0,68,0.00,,,0.00,341.00,VWS V14.00,2013-01-07 15:49:00,
2013-01-07 09:54:00,46.4,36.4,30.33,East,86,0.0,0.0,68,0.00,,,0.00,193.00,VWS V14.00,2013-01-07 15:54:00,
2013-01-07 09:59:00,46.9,36.9,30.33,East,86,0.0,4.0,68,0.00,,,0.00,359.00,VWS V14.00,2013-01-07 15:59:00,
2013-01-07 10:04:00,47.5,37.5,30.33,East,90,0.0,1.0,68,0.00,,,0.00,285.00,VWS V14.00,2013-01-07 16:04:00,
2013-01-07 10:09:00,47.6,37.2,30.33,East,90,3.0,6.0,67,0.00,,,0.00,283.00,VWS V14.00,2013-01-07 16:09:00,
2013-01-07 10:14:00,48.2,38.2,30.33,East,96,2.0,6.0,68,0.00,,,0.00,290.00,VWS V14.00,2013-01-07 16:14:00,
2013-01-07 10:19:00,48.3,37.9,30.33,East,98,0.0,0.0,67,0.00,,,0.00,332.00,VWS V14.00,2013-01-07 16:19:00,
2013-01-07 10:24:00,48.7,38.2,30.33,SE,131,7.0,7.0,67,0.00,,,0.00,294.00,VWS V14.00,2013-01-07 16:24:00,
2013-01-07 10:29:00,48.6,37.8,30.33,SSE,148,0.0,0.0,66,0.00,,,0.00,251.00,VWS V14.00,2013-01-07 16:29:00,
2013-01-07 10:34:00,48.6,37.8,30.33,SSE,148,0.0,0.0,66,0.00,,,0.00,272.00,VWS V14.00,2013-01-07 16:34:00,
2013-01-07 10:39:00,49.2,38.7,30.33,SE,144,4.0,7.0,67,0.00,,,0.00,309.00,VWS V14.00,2013-01-07 16:39:00,
2013-01-07 10:44:00,49.8,38.5,30.33,SSE,148,0.0,0.0,65,0.00,,,0.00,376.00,VWS V14.00,2013-01-07 16:44:00,
2013-01-07 10:49:00,49.8,38.5,30.32,SSE,150,0.0,0.0,65,0.00,,,0.00,250.00,VWS V14.00,2013-01-07 16:49:00,
2013-01-07 10:54:00,49.7,38.4,30.32,SSE,151,4.0,4.0,65,0.00,,,0.00,237.00,VWS V14.00,2013-01-07 16:54:00,
2013-01-07 10:59:00,49.7,38.4,30.32,SSE,152,0.0,0.0,65,0.00,,,0.00,329.00,VWS V14.00,2013-01-07 16:59:00,
2013-01-07 11:04:00,49.9,38.6,30.31,SSE,153,0.0,0.0,65,0.00,,,0.00,301.00,VWS V14.00,2013-01-07 17:04:00,
2013-01-07 11:09:00,50.0,38.7,30.31,SSE,153,0.0,2.0,65,0.00,,,0.00,325.00,VWS V14.00,2013-01-07 17:09:00,
2013-01-07 11:14:00,50.1,38.4,30.31,SSE,159,0.0,3.0,64,0.00,,,0.00,432.00,VWS V14.00,2013-01-07 17:14:00,
2013-01-07 11:19:00,51.1,39.4,30.30,SSE,159,0.0,0.0,64,0.00,,,0.00,424.00,VWS V14.00,2013-01-07 17:19:00,
2013-01-07 11:24:00,51.5,39.3,30.30,SSE,160,0.0,0.0,63,0.00,,,0.00,366.00,VWS V14.00,2013-01-07 17:24:00,
2013-01-07 11:29:00,51.9,38.9,30.30,SSE,161,0.0,0.0,61,0.00,,,0.00,480.00,VWS V14.00,2013-01-07 17:29:00,
2013-01-07 11:34:00,51.7,38.3,30.29,SSE,161,0.0,8.0,60,0.00,,,0.00,302.00,VWS V14.00,2013-01-07 17:34:00,
2013-01-07 11:39:00,51.6,38.2,30.29,SSE,167,5.0,5.0,60,0.00,,,0.00,330.00,VWS V14.00,2013-01-07 17:39:00,
2013-01-07 11:44:00,51.3,38.7,30.29,SSE,167,7.0,7.0,62,0.00,,,0.00,417.00,VWS V14.00,2013-01-07 17:44:00,
2013-01-07 11:49:00,52.2,39.2,30.28,SSE,167,0.0,0.0,61,0.00,,,0.00,313.00,VWS V14.00,2013-01-07 17:49:00,
2013-01-07 11:54:00,52.1,38.7,30.28,South,169,0.0,0.0,60,0.00,,,0.00,355.00,VWS V14.00,2013-01-07 17:54:00,
2013-01-07 11:59:00,52.1,38.2,30.28,South,178,2.0,8.0,59,0.00,,,0.00,403.00,VWS V14.00,2013-01-07 17:59:00,
2013-01-07 12:04:00,52.3,38.4,30.27,South,175,0.0,1.0,59,0.00,,,0.00,420.00,VWS V14.00,2013-01-07 18:04:00,
2013-01-07 12:09:00,52.6,38.7,30.27,South,182,0.0,0.0,59,0.00,,,0.00,413.00,VWS V14.00,2013-01-07 18:09:00,
2013-01-07 12:14:00,52.7,38.8,30.27,South,181,0.0,0.0,59,0.00,,,0.00,471.00,VWS V14.00,2013-01-07 18:14:00,
2013-01-07 12:19:00,53.2,39.3,30.26,South,180,4.0,10.0,59,0.00,,,0.00,388.00,VWS V14.00,2013-01-07 18:19:00,
2013-01-07 12:24:00,53.4,39.0,30.26,South,180,0.0,2.0,58,0.00,,,0.00,487.00,VWS V14.00,2013-01-07 18:24:00,
2013-01-07 12:29:00,53.5,39.1,30.26,South,180,0.0,0.0,58,0.00,,,0.00,469.00,VWS V14.00,2013-01-07 18:29:00,
2013-01-07 12:34:00,53.4,39.5,30.25,South,180,0.0,0.0,59,0.00,,,0.00,468.00,VWS V14.00,2013-01-07 18:34:00,
2013-01-07 12:39:00,53.6,39.2,30.25,South,180,0.0,0.0,58,0.00,,,0.00,501.00,VWS V14.00,2013-01-07 18:39:00,
2013-01-07 12:44:00,54.1,39.2,30.25,South,178,0.0,0.0,57,0.00,,,0.00,519.00,VWS V14.00,2013-01-07 18:44:00,
2013-01-07 12:49:00,54.1,38.8,30.24,SSE,166,0.0,0.0,56,0.00,,,0.00,424.00,VWS V14.00,2013-01-07 18:49:00,
2013-01-07 12:54:00,53.9,38.6,30.24,SSE,159,1.0,5.0,56,0.00,,,0.00,278.00,VWS V14.00,2013-01-07 18:54:00,
2013-01-07 12:59:00,53.9,38.6,30.24,SSE,156,0.0,5.0,56,0.00,,,0.00,496.00,VWS V14.00,2013-01-07 18:59:00,
2013-01-07 13:04:00,54.5,38.7,30.22,SSE,155,0.0,0.0,55,0.00,,,0.00,464.00,VWS V14.00,2013-01-07 19:04:00,
2013-01-07 13:09:00,54.6,37.8,30.22,SSE,157,0.0,0.0,53,0.00,,,0.00,364.00,VWS V14.00,2013-01-07 19:09:00,
2013-01-07 13:13:00,54.0,38.2,30.22,SSE,157,0.0,0.0,55,0.00,,,0.00,339.00,VWS V14.00,2013-01-07 19:13:00,
2013-01-07 13:18:00,54.1,37.8,30.21,SSE,157,0.0,0.0,54,0.00,,,0.00,332.00,VWS V14.00,2013-01-07 19:18:00,
2013-01-07 13:23:00,53.8,37.6,30.21,SSE,157,0.0,0.0,54,0.00,,,0.00,350.00,VWS V14.00,2013-01-07 19:23:00,
2013-01-07 13:28:00,54.3,38.0,30.21,SSE,157,0.0,0.0,54,0.00,,,0.00,274.00,VWS V14.00,2013-01-07 19:28:00,
2013-01-07 13:33:00,54.5,38.2,30.19,SE,142,0.0,0.0,54,0.00,,,0.00,591.00,VWS V14.00,2013-01-07 19:33:00,
2013-01-07 13:38:00,56.1,38.7,30.19,SSE,147,0.0,0.0,52,0.00,,,0.00,775.00,VWS V14.00,2013-01-07 19:38:00,
2013-01-07 13:43:00,56.4,38.0,30.19,SSE,147,0.0,0.0,50,0.00,,,0.00,693.00,VWS V14.00,2013-01-07 19:43:00,
2013-01-07 13:48:00,55.5,38.2,30.19,SE,138,4.0,5.0,52,0.00,,,0.00,241.00,VWS V14.00,2013-01-07 19:48:00,
2013-01-07 13:53:00,55.1,37.8,30.19,SE,138,3.0,3.0,52,0.00,,,0.00,271.00,VWS V14.00,2013-01-07 19:53:00,
2013-01-07 13:58:00,55.5,38.2,30.19,SE,138,0.0,0.0,52,0.00,,,0.00,346.00,VWS V14.00,2013-01-07 19:58:00,
2013-01-07 14:03:00,55.4,37.6,30.17,SE,138,0.0,0.0,51,0.00,,,0.00,311.00,VWS V14.00,2013-01-07 20:03:00,
2013-01-07 14:08:00,55.6,37.3,30.17,SE,138,0.0,9.0,50,0.00,,,0.00,274.00,VWS V14.00,2013-01-07 20:08:00,
2013-01-07 14:13:00,55.5,37.2,30.17,SE,138,0.0,4.0,50,0.00,,,0.00,260.00,VWS V14.00,2013-01-07 20:13:00,
2013-01-07 14:18:00,55.4,37.6,30.17,SE,138,0.0,0.0,51,0.00,,,0.00,258.00,VWS V14.00,2013-01-07 20:18:00,
2013-01-07 14:19:00,55.3,37.5,30.17,SE,138,0.0,0.0,51,0.00,,,0.00,248.00,VWS V14.00,2013-01-07 20:19:00,
2013-01-07 14:24:00,55.7,37.4,30.17,SE,143,4.0,10.0,50,0.00,,,0.00,230.00,VWS V14.00,2013-01-07 20:24:00,
2013-01-07 14:29:00,55.2,36.9,30.17,SE,143,0.0,0.0,50,0.00,,,0.00,214.00,VWS V14.00,2013-01-07 20:29:00,
2013-01-07 14:34:00,55.6,38.3,30.16,SE,143,0.0,6.0,52,0.00,,,0.00,283.00,VWS V14.00,2013-01-07 20:34:00,
2013-01-07 14:39:00,55.8,37.5,30.16,SE,144,0.0,3.0,50,0.00,,,0.00,204.00,VWS V14.00,2013-01-07 20:39:00,
2013-01-07 14:44:00,55.5,37.7,30.16,SSE,150,1.0,9.0,51,0.00,,,0.00,243.00,VWS V14.00,2013-01-07 20:44:00,
2013-01-07 14:49:00,56.2,37.8,30.15,SSE,155,0.0,0.0,50,0.00,,,0.00,339.00,VWS V14.00,2013-01-07 20:49:00,
2013-01-07 14:54:00,56.4,38.5,30.15,SSE,165,5.0,10.0,51,0.00,,,0.00,232.00,VWS V14.00,2013-01-07 20:54:00,
2013-01-07 14:59:00,56.3,38.4,30.15,SSE,168,9.0,9.0,51,0.00,,,0.00,429.00,VWS V14.00,2013-01-07 20:59:00,
2013-01-07 15:04:00,56.5,37.6,30.15,SSE,156,7.0,8.0,49,0.00,,,0.00,274.00,VWS V14.00,2013-01-07 21:04:00,
2013-01-07 15:09:00,56.0,37.6,30.15,SSE,160,5.0,10.0,50,0.00,,,0.00,130.00,VWS V14.00,2013-01-07 21:09:00,
2013-01-07 15:14:00,55.7,37.9,30.15,SSE,151,12.0,14.0,51,0.00,,,0.00,149.00,VWS V14.00,2013-01-07 21:14:00,
2013-01-07 15:19:00,55.6,38.3,30.15,SSE,151,1.0,6.0,52,0.00,,,0.00,142.00,VWS V14.00,2013-01-07 21:19:00,
2013-01-07 15:24:00,55.7,37.9,30.15,SSE,161,8.0,12.0,51,0.00,,,0.00,163.00,VWS V14.00,2013-01-07 21:24:00,
2013-01-07 15:29:00,55.7,37.9,30.15,SSE,161,7.0,11.0,51,0.00,,,0.00,171.00,VWS V14.00,2013-01-07 21:29:00,
2013-01-07 15:34:00,55.4,37.6,30.14,SE,144,3.0,7.0,51,0.00,,,0.00,121.00,VWS V14.00,2013-01-07 21:34:00,
2013-01-07 15:39:00,55.1,37.3,30.14,SSE,160,6.0,6.0,51,0.00,,,0.00,98.00,VWS V14.00,2013-01-07 21:39:00,
2013-01-07 15:44:00,54.8,37.5,30.14,SSE,153,4.0,11.0,52,0.00,,,0.00,160.00,VWS V14.00,2013-01-07 21:44:00,
2013-01-07 15:49:00,54.9,37.6,30.15,SSE,153,2.0,6.0,52,0.00,,,0.00,137.00,VWS V14.00,2013-01-07 21:49:00,
2013-01-07 15:54:00,54.9,37.6,30.15,SSE,153,0.0,1.0,52,0.00,,,0.00,123.00,VWS V14.00,2013-01-07 21:54:00,
2013-01-07 15:59:00,54.6,37.8,30.15,SSE,153,0.0,0.0,53,0.00,,,0.00,98.00,VWS V14.00,2013-01-07 21:59:00,
2013-01-07 16:04:00,54.4,37.6,30.16,SSE,153,0.0,6.0,53,0.00,,,0.00,58.00,VWS V14.00,2013-01-07 22:04:00,
2013-01-07 16:09:00,54.4,37.6,30.16,SSE,153,0.0,0.0,53,0.00,,,0.00,90.00,VWS V14.00,2013-01-07 22:09:00,
2013-01-07 16:14:00,54.5,37.7,30.16,SSE,153,0.0,4.0,53,0.00,,,0.00,98.00,VWS V14.00,2013-01-07 22:14:00,
2013-01-07 16:19:00,54.6,37.8,30.16,SSE,153,0.0,3.0,53,0.00,,,0.00,81.00,VWS V14.00,2013-01-07 22:19:00,
2013-01-07 16:24:00,54.2,37.5,30.16,SSE,152,0.0,0.0,53,0.00,,,0.00,72.00,VWS V14.00,2013-01-07 22:24:00,
2013-01-07 16:29:00,54.2,37.9,30.16,SSE,152,0.0,0.0,54,0.00,,,0.00,72.00,VWS V14.00,2013-01-07 22:29:00,
2013-01-07 16:34:00,54.1,37.8,30.16,SSE,151,0.0,6.0,54,0.00,,,0.00,70.00,VWS V14.00,2013-01-07 22:34:00,
2013-01-07 16:39:00,53.9,38.1,30.16,SSE,151,0.0,0.0,55,0.00,,,0.00,65.00,VWS V14.00,2013-01-07 22:39:00,
2013-01-07 16:44:00,53.9,38.1,30.16,SSE,151,7.0,8.0,55,0.00,,,0.00,60.00,VWS V14.00,2013-01-07 22:44:00,
2013-01-07 16:49:00,53.7,37.9,30.15,SSE,150,0.0,0.0,55,0.00,,,0.00,53.00,VWS V14.00,2013-01-07 22:49:00,
2013-01-07 16:54:00,53.6,38.3,30.15,SSE,150,0.0,4.0,56,0.00,,,0.00,47.00,VWS V14.00,2013-01-07 22:54:00,
2013-01-07 16:59:00,53.3,38.5,30.15,SSE,150,0.0,4.0,57,0.00,,,0.00,37.00,VWS V14.00,2013-01-07 22:59:00,
2013-01-07 17:04:00,53.2,38.4,30.16,SSE,150,0.0,5.0,57,0.00,,,0.00,28.00,VWS V14.00,2013-01-07 23:04:00,
2013-01-07 17:09:00,53.1,38.7,30.16,SSE,150,0.0,0.0,58,0.00,,,0.00,21.00,VWS V14.00,2013-01-07 23:09:00,
2013-01-07 17:14:00,53.1,38.7,30.16,SSE,150,0.0,0.0,58,0.00,,,0.00,19.00,VWS V14.00,2013-01-07 23:14:00,
2013-01-07 17:19:00,53.1,38.7,30.16,SSE,150,0.0,5.0,58,0.00,,,0.00,12.00,VWS V14.00,2013-01-07 23:19:00,
2013-01-07 17:24:00,53.1,38.7,30.16,SSE,150,6.0,7.0,58,0.00,,,0.00,9.00,VWS V14.00,2013-01-07 23:24:00,
2013-01-07 17:29:00,53.0,39.1,30.16,SSE,151,10.0,11.0,59,0.00,,,0.00,5.00,VWS V14.00,2013-01-07 23:29:00,
2013-01-07 17:34:00,52.9,39.0,30.15,SSE,151,5.0,7.0,59,0.00,,,0.00,5.00,VWS V14.00,2013-01-07 23:34:00,
2013-01-07 17:39:00,52.8,39.3,30.15,SSE,151,5.0,5.0,60,0.00,,,0.00,0.00,VWS V14.00,2013-01-07 23:39:00,
2013-01-07 17:44:00,52.6,39.1,30.15,SSE,151,0.0,0.0,60,0.00,,,0.00,0.00,VWS V14.00,2013-01-07 23:44:00,
2013-01-07 17:49:00,52.5,39.5,30.16,SSE,151,0.0,0.0,61,0.00,,,0.00,0.00,VWS V14.00,2013-01-07 23:49:00,
2013-01-07 17:54:00,52.3,39.3,30.16,SSE,151,0.0,0.0,61,0.00,,,0.00,0.00,VWS V14.00,2013-01-07 23:54:00,
2013-01-07 17:59:00,52.2,39.6,30.16,SSE,151,0.0,0.0,62,0.00,,,0.00,0.00,VWS V14.00,2013-01-07 23:59:00,
2013-01-07 18:04:00,52.2,39.6,30.16,SSE,151,0.0,0.0,62,0.00,,,0.00,0.00,VWS V14.00,2013-01-08 00:04:00,
2013-01-07 18:09:00,52.2,39.6,30.16,SSE,151,0.0,0.0,62,0.00,,,0.00,0.00,VWS V14.00,2013-01-08 00:09:00,
2013-01-07 18:14:00,52.2,39.6,30.16,SSE,151,0.0,0.0,62,0.00,,,0.00,0.00,VWS V14.00,2013-01-08 00:14:00,
2013-01-07 18:19:00,52.2,39.6,30.15,SSE,151,6.0,7.0,62,0.00,,,0.00,0.00,VWS V14.00,2013-01-08 00:19:00,
2013-01-07 18:24:00,52.2,39.6,30.15,SSE,148,4.0,9.0,62,0.00,,,0.00,0.00,VWS V14.00,2013-01-08 00:24:00,
2013-01-07 18:29:00,52.1,39.9,30.15,SSE,148,0.0,0.0,63,0.00,,,0.00,0.00,VWS V14.00,2013-01-08 00:29:00,
2013-01-07 18:34:00,52.1,39.9,30.14,SSE,148,3.0,3.0,63,0.00,,,0.00,0.00,VWS V14.00,2013-01-08 00:34:00,
2013-01-07 18:39:00,52.0,39.8,30.14,SSE,148,0.0,0.0,63,0.00,,,0.00,0.00,VWS V14.00,2013-01-08 00:39:00,
2013-01-07 18:44:00,51.9,39.7,30.14,SSE,148,3.0,4.0,63,0.00,,,0.00,0.00,VWS V14.00,2013-01-08 00:44:00,
2013-01-07 18:49:00,51.8,39.6,30.13,SE,142,4.0,7.0,63,0.00,,,0.00,0.00,VWS V14.00,2013-01-08 00:49:00,
2013-01-07 18:54:00,51.6,39.8,30.13,SE,143,6.0,7.0,64,0.00,,,0.00,0.00,VWS V14.00,2013-01-08 00:54:00,
2013-01-07 18:59:00,51.5,40.1,30.13,SE,142,0.0,5.0,65,0.00,,,0.00,0.00,VWS V14.00,2013-01-08 00:59:00,
2013-01-07 19:04:00,51.4,40.0,30.13,SE,143,3.0,5.0,65,0.00,,,0.00,0.00,VWS V14.00,2013-01-08 01:04:00,
2013-01-07 19:09:00,51.2,39.8,30.13,SE,144,10.0,10.0,65,0.00,,,0.00,0.00,VWS V14.00,2013-01-08 01:09:00,
2013-01-07 19:14:00,51.0,40.1,30.13,SE,146,1.0,1.0,66,0.00,,,0.00,0.00,VWS V14.00,2013-01-08 01:14:00,
2013-01-07 19:19:00,50.8,39.9,30.12,SSE,147,0.0,2.0,66,0.00,,,0.00,0.00,VWS V14.00,2013-01-08 01:19:00,
2013-01-07 19:24:00,50.5,40.0,30.12,SSE,147,6.0,7.0,67,0.00,,,0.00,0.00,VWS V14.00,2013-01-08 01:24:00,
2013-01-07 19:29:00,50.4,39.9,30.12,SSE,147,0.0,0.0,67,0.00,,,0.00,0.00,VWS V14.00,2013-01-08 01:29:00,
2013-01-07 19:34:00,50.2,40.1,30.12,SSE,147,0.0,0.0,68,0.00,,,0.00,0.00,VWS V14.00,2013-01-08 01:34:00,
2013-01-07 19:39:00,50.0,39.9,30.12,SE,146,10.0,10.0,68,0.00,,,0.00,0.00,VWS V14.00,2013-01-08 01:39:00,
2013-01-07 19:44:00,50.0,40.2,30.12,SE,140,0.0,0.0,69,0.00,,,0.00,0.00,VWS V14.00,2013-01-08 01:44:00,
2013-01-07 19:49:00,49.9,40.2,30.11,SE,140,0.0,0.0,69,0.00,,,0.00,0.00,VWS V14.00,2013-01-08 01:49:00,
2013-01-07 19:54:00,49.8,40.0,30.11,SE,140,0.0,0.0,69,0.00,,,0.00,0.00,VWS V14.00,2013-01-08 01:54:00,
2013-01-07 19:59:00,49.6,40.2,30.11,SE,140,0.0,0.0,70,0.00,,,0.00,0.00,VWS V14.00,2013-01-08 01:59:00,
2013-01-07 20:04:00,49.7,40.3,30.15,SE,140,0.0,0.0,70,0.00,,,0.00,0.00,VWS V14.00,2013-01-08 02:04:00,
2013-01-07 20:09:00,49.9,40.2,30.15,SE,140,0.0,0.0,69,0.00,,,0.00,0.00,VWS V14.00,2013-01-08 02:09:00,
2013-01-07 20:14:00,50.2,40.4,30.15,SE,140,0.0,0.0,69,0.00,,,0.00,0.00,VWS V14.00,2013-01-08 02:14:00,
2013-01-07 20:18:00,50.3,40.5,30.14,SE,140,0.0,0.0,69,0.00,,,0.00,0.00,VWS V14.00,2013-01-08 02:18:00,
2013-01-07 20:23:00,50.3,40.5,30.14,SE,140,0.0,0.0,69,0.00,,,0.00,0.00,VWS V14.00,2013-01-08 02:23:00,
2013-01-07 20:28:00,50.4,40.6,30.14,SE,140,0.0,0.0,69,0.00,,,0.00,0.00,VWS V14.00,2013-01-08 02:28:00,
2013-01-07 20:33:00,50.4,40.6,30.13,SE,140,0.0,0.0,69,0.00,,,0.00,0.00,VWS V14.00,2013-01-08 02:33:00,
2013-01-07 20:38:00,50.4,40.6,30.13,SE,140,0.0,0.0,69,0.00,,,0.00,0.00,VWS V14.00,2013-01-08 02:38:00,
2013-01-07 20:43:00,50.5,40.7,30.13,SE,140,0.0,0.0,69,0.00,,,0.00,0.00,VWS V14.00,2013-01-08 02:43:00,
2013-01-07 20:48:00,50.5,40.7,30.14,SE,140,4.0,4.0,69,0.00,,,0.00,0.00,VWS V14.00,2013-01-08 02:48:00,
2013-01-07 20:53:00,50.5,40.7,30.14,SE,140,0.0,0.0,69,0.00,,,0.00,0.00,VWS V14.00,2013-01-08 02:53:00,
2013-01-07 20:58:00,50.6,40.8,30.14,SE,140,0.0,0.0,69,0.00,,,0.00,0.00,VWS V14.00,2013-01-08 02:58:00,
2013-01-07 21:03:00,50.6,40.8,30.14,SE,140,0.0,0.0,69,0.00,,,0.00,0.00,VWS V14.00,2013-01-08 03:03:00,
2013-01-07 21:08:00,50.6,40.8,30.14,SE,140,0.0,0.0,69,0.00,,,0.00,0.00,VWS V14.00,2013-01-08 03:08:00,
2013-01-07 21:13:00,50.6,40.8,30.14,SE,140,0.0,0.0,69,0.00,,,0.00,0.00,VWS V14.00,2013-01-08 03:13:00,
2013-01-07 21:18:00,50.6,40.8,30.13,SE,140,0.0,0.0,69,0.00,,,0.00,0.00,VWS V14.00,2013-01-08 03:18:00,
2013-01-07 21:23:00,50.6,40.8,30.13,SE,140,0.0,0.0,69,0.00,,,0.00,0.00,VWS V14.00,2013-01-08 03:23:00,
2013-01-07 21:28:00,50.6,40.8,30.13,SE,140,3.0,5.0,69,0.00,,,0.00,0.00,VWS V14.00,2013-01-08 03:28:00,
2013-01-07 21:33:00,50.6,40.8,30.12,SE,140,0.0,5.0,69,0.00,,,0.00,0.00,VWS V14.00,2013-01-08 03:33:00,
2013-01-07 21:38:00,50.7,40.9,30.12,SE,140,0.0,0.0,69,0.00,,,0.00,0.00,VWS V14.00,2013-01-08 03:38:00,
2013-01-07 21:43:00,50.7,40.9,30.12,SE,140,0.0,5.0,69,0.00,,,0.00,0.00,VWS V14.00,2013-01-08 03:43:00,
2013-01-07 21:48:00,50.7,40.9,30.12,SE,140,0.0,0.0,69,0.00,,,0.00,0.00,VWS V14.00,2013-01-08 03:48:00,
2013-01-07 21:53:00,50.6,40.8,30.12,SE,140,0.0,0.0,69,0.00,,,0.00,0.00,VWS V14.00,2013-01-08 03:53:00,
2013-01-07 21:58:00,50.6,40.8,30.12,SE,140,0.0,0.0,69,0.00,,,0.00,0.00,VWS V14.00,2013-01-08 03:58:00,
2013-01-07 22:03:00,50.7,40.9,30.11,SE,140,0.0,0.0,69,0.00,,,0.00,0.00,VWS V14.00,2013-01-08 04:03:00,
2013-01-07 22:08:00,50.6,40.8,30.11,SE,140,0.0,0.0,69,0.00,,,0.00,0.00,VWS V14.00,2013-01-08 04:08:00,
2013-01-07 22:13:00,50.7,40.9,30.11,SE,140,3.0,4.0,69,0.00,,,0.00,0.00,VWS V14.00,2013-01-08 04:13:00,
2013-01-07 22:18:00,50.7,40.9,30.10,SE,140,0.0,0.0,69,0.00,,,0.00,0.00,VWS V14.00,2013-01-08 04:18:00,
2013-01-07 22:23:00,50.8,41.0,30.10,SE,140,0.0,0.0,69,0.00,,,0.00,0.00,VWS V14.00,2013-01-08 04:23:00,
2013-01-07 22:28:00,50.8,41.0,30.10,SE,140,0.0,0.0,69,0.00,,,0.00,0.00,VWS V14.00,2013-01-08 04:28:00,
2013-01-07 22:33:00,50.8,41.0,30.10,SE,141,0.0,0.0,69,0.00,,,0.00,0.00,VWS V14.00,2013-01-08 04:33:00,
2013-01-07 22:38:00,50.7,41.3,30.10,SE,141,3.0,5.0,70,0.00,,,0.00,0.00,VWS V14.00,2013-01-08 04:38:00,
2013-01-07 22:43:00,50.7,41.3,30.10,SE,141,0.0,2.0,70,0.00,,,0.00,0.00,VWS V14.00,2013-01-08 04:43:00,
2013-01-07 22:48:00,50.6,41.6,30.10,SE,141,4.0,5.0,71,0.00,,,0.00,0.00,VWS V14.00,2013-01-08 04:48:00,
2013-01-07 22:53:00,50.6,41.6,30.10,SE,141,2.0,2.0,71,0.00,,,0.00,0.00,VWS V14.00,2013-01-08 04:53:00,
2013-01-07 22:58:00,50.6,41.6,30.10,SE,141,0.0,0.0,71,0.00,,,0.00,0.00,VWS V14.00,2013-01-08 04:58:00,
2013-01-07 23:00:00,50.5,41.5,30.09,SE,141,5.0,9.0,71,0.00,,,0.00,0.00,VWS V14.00,2013-01-08 05:00:00,
2013-01-07 23:03:00,50.5,41.8,30.09,SE,141,0.0,0.0,72,0.00,,,0.00,0.00,VWS V14.00,2013-01-08 05:03:00,
2013-01-07 23:08:00,50.5,41.8,30.09,SE,141,5.0,6.0,72,0.00,,,0.00,0.00,VWS V14.00,2013-01-08 05:08:00,
2013-01-07 23:13:00,50.5,41.8,30.09,SE,141,2.0,6.0,72,0.00,,,0.00,0.00,VWS V14.00,2013-01-08 05:13:00,
2013-01-07 23:18:00,50.4,42.1,30.08,SE,142,6.0,9.0,73,0.00,,,0.00,0.00,VWS V14.00,2013-01-08 05:18:00,
2013-01-07 23:23:00,50.4,42.1,30.08,SE,142,0.0,0.0,73,0.00,,,0.00,0.00,VWS V14.00,2013-01-08 05:23:00,
2013-01-07 23:28:00,50.4,42.4,30.08,SE,142,9.0,12.0,74,0.00,,,0.00,0.00,VWS V14.00,2013-01-08 05:28:00,
2013-01-07 23:33:00,50.3,42.3,30.08,SE,142,0.0,4.0,74,0.00,,,0.00,0.00,VWS V14.00,2013-01-08 05:33:00,
2013-01-07 23:38:00,50.2,42.2,30.08,SE,142,0.0,0.0,74,0.00,,,0.00,0.00,VWS V14.00,2013-01-08 05:38:00,
2013-01-07 23:43:00,50.1,42.2,30.08,SE,142,0.0,0.0,74,0.00,,,0.00,0.00,VWS V14.00,2013-01-08 05:43:00,
2013-01-07 23:48:00,50.0,42.0,30.07,SE,142,0.0,0.0,74,0.00,,,0.00,0.00,VWS V14.00,2013-01-08 05:48:00,
2013-01-07 23:53:00,49.9,42.3,30.07,SE,142,3.0,6.0,75,0.00,,,0.00,0.00,VWS V14.00,2013-01-08 05:53:00,
2013-01-07 23:58:00,49.9,42.3,30.07,SE,142,0.0,0.0,75,0.00,,,0.00,0.00,VWS V14.00,2013-01-08 05:58:00,